Regional Weather Roundup
Issued by NWS

Home | Current Version | Previous Version | Text Only | Print | Product List | Glossary On
Versions: 1 2 3 4 5 6 7 8 9 10 11 12 13 14 15 16 17 18 19 20 21 22 23 24 25 26 27 28 29 30 31 32 33 34 35 36 37 38 39 40 41 42 43 44 45 46 47 48 49 50
000
ASUS45 KBOI 092210
RWRID

IDAHO REGIONAL WEATHER ROUNDUP
NATIONAL WEATHER SERVICE BOISE ID
300 PM MST TUE FEB 09 2016

NOTE: "FAIR" INDICATES FEW OR NO CLOUDS BELOW 12000 FEET
WITH NO SIGNIFICANT WEATHER AND/OR OBSTRUCTIONS TO VISIBILITY

IDZ012-014-092300-
SOUTHWEST IDAHO


CITY           SKY/WX    TMP DP  RH WIND       PRES   REMARKS
BOISE          SUNNY     42  31  64 CALM      30.49F
CALDWELL       CLOUDY    41  31  67 S5        30.52F
MOUNTAIN HOME  SUNNY     40  31  69 SE10      30.49F WCI  34
$$

IDZ016-017-092300-
SOUTHCENTRAL IDAHO


CITY           SKY/WX    TMP DP  RH WIND       PRES   REMARKS
BURLEY         SUNNY     37  30  75 NE13      30.46F WCI  29
JEROME         SUNNY     33  28  81 E9        30.47F WCI  25
TWIN FALLS     CLOUDY    32  31  96 NE9       30.46F WCI  24
$$

IDZ019>023-092300-
SOUTHEAST IDAHO


CITY           SKY/WX    TMP DP  RH WIND       PRES   REMARKS
IDAHO FALLS    CLOUDY    28  24  85 N6        30.52F WCI  22
POCATELLO      CLOUDY    31  25  78 NE10      30.51F WCI  22
REXBURG        CLOUDY    31  23  72 E3        30.51F
$$

IDZ006-010-011-018-031-032-092300-
CENTRAL IDAHO MOUNTAINS


CITY           SKY/WX    TMP DP  RH WIND       PRES   REMARKS
MCCALL         SUNNY     35  30  82 S3        30.39F
HAILEY         SUNNY     36  27  69 CALM      30.47F
STANLEY          N/A     37  23  56 CALM      30.45F
SALMON         CLOUDY    25  18  74 CALM      30.51F
CHALLIS        SUNNY     28  19  69 CALM      30.47F
$$

IDZ002-004-006-007-026-092300-
NORTHERN IDAHO


CITY           SKY/WX    TMP DP  RH WIND       PRES   REMARKS
LEWISTON       SUNNY     59  36  42 SE15      30.27F
LOWELL           N/A     53  39  59 N5        30.31F
COEUR D`ALENE  SUNNY     48  36  61 NE15      30.27F
MULLAN PASS    SUNNY     49  30  48 VRB3      30.34F
$$



USA.gov is the U.S. government's official web portal to all federal, state and local government web resources and services.